Regional Weather Roundup
Issued by NWS Goodland, KS

Home | Current Version | Previous Version | Text Only | Print | Product List | Glossary On
Versions: 1 2 3 4 5 6 7 8 9 10 11 12 13 14 15 16 17 18 19 20 21 22 23 24 25 26 27 28 29 30 31 32 33 34 35 36 37 38 39 40 41 42 43 44 45 46 47 48 49 50
000
ASUS43 KGLD 221208
RWRGLD

GOODLAND FORECAST AREA HOURLY WEATHER ROUNDUP
NATIONAL WEATHER SERVICE GOODLAND KS
600 AM MDT MON SEP 22 2014

...OFFICIAL OBSERVATIONS...

CITY           SKY/WX    TMP DP  RH WIND       PRES   REMARKS
GOODLAND KS    PTCLDY    50  42  74 S13       30.30F
HILL CITY KS   CLOUDY    54  45  71 E5        30.31R
IMPERIAL NEB   MOCLDY    57  41  55 SE7       30.26F
MCCOOK NEB     PTCLDY    52  44  74 E5        30.29F
AKRON CO       MOCLDY    60  44  55 S17G24    30.23F
BURLINGTON CO  CLOUDY    56  41  57 S15G22    30.29S
LIMON CO       MOCLDY    50  41  71 SE12      30.27F
$$

...UNOFFICIAL OBSERVATIONS...

CITY           SKY/WX    TMP DP  RH WIND       PRES   REMARKS
COLBY KS       CLEAR     55  45  67 SE7       30.30F
GOVE KS          N/A     52  32  46 MISG        N/A
NORTON KS      CLEAR     50  39  66 SE5       30.29
SHARON SPRINGS   N/A     53  44  71 S10         N/A
TRIBUNE KS     CLEAR     55  48  76 S9        30.32F
WAKEENEY KS      N/A     57  41  56 MISG        N/A
TRENTON NEB      N/A     55  32  41 SE9         N/A
KIT CARSON CO    N/A     55  43  63 N10         N/A
YUMA CO          N/A     57  41  56 S10         N/A
$$


USA.gov is the U.S. government's official web portal to all federal, state and local government web resources and services.